• In Deutschland
  • Länderverzeichnis
  • Für 7 Tage
  • Wassertemperatur
  • Satellitenkarten
  • Wetterkarte
  • Widgets
  • user-avatar
    Anmelden

    Stündliche Wetter Ndjbele

    Heute, 26 September, Dienstag

    Zeit Temperatur Niederschläge Wind Luftdruck Luftfeuchtigkeit
    00:00 +21°C° 0,4 mm 0 m/S 716 mmHg 98%
    01:00 +20°C° 0,4 mm 0 m/S 716 mmHg 98%
    02:00 +20°C° 0,4 mm 0 m/S 715 mmHg 98%
    03:00 +20°C° 0 mm 0 m/S 715 mmHg 98%
    04:00 +20°C° 0 mm 0 m/S 715 mmHg 98%
    05:00 +20°C° 0 mm 0 m/S 715 mmHg 98%
    06:00 +21°C° 0 mm 0 m/S 715 mmHg 95%
    07:00 +22°C° 0 mm 0 m/S 716 mmHg 91%
    08:00 +24°C° 0 mm 0 m/S 716 mmHg 88%
    09:00 +26°C° 0,1 mm 0 m/S 716 mmHg 76%
    10:00 +30°C° 0,1 mm 1 m/S 716 mmHg 64%
    11:00 +33°C° 0,1 mm 1 m/S 716 mmHg 52%
    12:00 +33°C° 0,1 mm 1 m/S 715 mmHg 52%
    13:00 +33°C° 0,1 mm 1 m/S 715 mmHg 52%
    14:00 +33°C° 0,1 mm 1 m/S 714 mmHg 51%
    15:00 +31°C° 0,9 mm 1 m/S 714 mmHg 63%
    16:00 +29°C° 0,9 mm 1 m/S 714 mmHg 75%
    17:00 +26°C° 0,9 mm 1 m/S 714 mmHg 87%
    18:00 +25°C° 2 mm 1 m/S 714 mmHg 90%
    19:00 +24°C° 2 mm 1 m/S 715 mmHg 94%
    20:00 +23°C° 2 mm 1 m/S 715 mmHg 97%
    21:00 +21°C° 0,4 mm 0 m/S 716 mmHg 97%
    22:00 +21°C° 0,4 mm 0 m/S 716 mmHg 98%
    23:00 +21°C° 0,4 mm 0 m/S 716 mmHg 98%

    Morgen, 27 September, Mittwoch

    Zeit Temperatur Niederschläge Wind Luftdruck Luftfeuchtigkeit
    00:00 +21°C° 0,1 mm 0 m/S 716 mmHg 98%
    01:00 +20°C° 0,1 mm 0 m/S 715 mmHg 98%
    02:00 +20°C° 0,1 mm 0 m/S 715 mmHg 98%
    03:00 +20°C° 0 mm 0 m/S 715 mmHg 98%
    04:00 +20°C° 0 mm 0 m/S 715 mmHg 99%
    05:00 +20°C° 0 mm 0 m/S 715 mmHg 99%
    06:00 +21°C° 0 mm 0 m/S 715 mmHg 95%
    07:00 +22°C° 0 mm 0 m/S 716 mmHg 91%
    08:00 +24°C° 0 mm 0 m/S 716 mmHg 88%
    09:00 +27°C° 0 mm 0 m/S 716 mmHg 75%
    10:00 +29°C° 0 mm 0 m/S 716 mmHg 62%
    11:00 +32°C° 0 mm 0 m/S 716 mmHg 49%
    12:00 +33°C° 0,8 mm 1 m/S 715 mmHg 56%
    13:00 +32°C° 0,8 mm 1 m/S 715 mmHg 63%
    14:00 +31°C° 0,8 mm 1 m/S 714 mmHg 70%
    15:00 +29°C° 1,8 mm 1 m/S 714 mmHg 78%
    16:00 +27°C° 1,8 mm 1 m/S 714 mmHg 85%
    17:00 +26°C° 1,8 mm 1 m/S 714 mmHg 93%
    18:00 +25°C° 1,4 mm 1 m/S 715 mmHg 94%
    19:00 +24°C° 1,4 mm 1 m/S 715 mmHg 95%
    20:00 +23°C° 1,4 mm 1 m/S 716 mmHg 96%
    21:00 +21°C° 1,1 mm 0 m/S 716 mmHg 96%
    22:00 +21°C° 1,1 mm 0 m/S 717 mmHg 97%
    23:00 +21°C° 1,1 mm 0 m/S 717 mmHg 97%

    übermorgen, 28 September, Donnerstag

    Zeit Temperatur Niederschläge Wind Luftdruck Luftfeuchtigkeit
    00:00 +21°C° 0,4 mm 0 m/S 716 mmHg 97%
    01:00 +21°C° 0,4 mm 0 m/S 716 mmHg 98%
    02:00 +20°C° 0,4 mm 0 m/S 715 mmHg 98%
    03:00 +20°C° 0,2 mm 0 m/S 716 mmHg 98%
    04:00 +20°C° 0,2 mm 0 m/S 716 mmHg 98%
    05:00 +20°C° 0,2 mm 0 m/S 716 mmHg 98%
    06:00 +21°C° 0,1 mm 0 m/S 716 mmHg 97%
    07:00 +21°C° 0,1 mm 0 m/S 717 mmHg 96%
    08:00 +22°C° 0,1 mm 0 m/S 717 mmHg 96%
    09:00 +24°C° 0 mm 0 m/S 717 mmHg 85%
    10:00 +26°C° 0 mm 0 m/S 717 mmHg 75%
    11:00 +30°C° 0 mm 1 m/S 717 mmHg 65%
    12:00 +30°C° 0,5 mm 1 m/S 716 mmHg 64%
    13:00 +31°C° 0,5 mm 1 m/S 716 mmHg 63%
    14:00 +32°C° 0,5 mm 1 m/S 715 mmHg 61%
    15:00 +30°C° 1 mm 1 m/S 715 mmHg 71%
    16:00 +28°C° 1 mm 1 m/S 715 mmHg 80%
    17:00 +26°C° 1 mm 1 m/S 715 mmHg 89%
    18:00 +25°C° 0,3 mm 1 m/S 715 mmHg 92%
    19:00 +24°C° 0,3 mm 1 m/S 716 mmHg 95%
    20:00 +21°C° 0,3 mm 0 m/S 717 mmHg 97%
    21:00 +21°C° 0 mm 0 m/S 717 mmHg 98%
    22:00 +21°C° 0 mm 0 m/S 717 mmHg 98%
    23:00 +21°C° 0 mm 0 m/S 717 mmHg 99%

    29 September, Freitag

    Zeit Temperatur Niederschläge Wind Luftdruck Luftfeuchtigkeit
    00:00 +21°C° 0,1 mm 0 m/S 717 mmHg 99%
    01:00 +21°C° 0,1 mm 0 m/S 716 mmHg 99%
    02:00 +21°C° 0,1 mm 0 m/S 716 mmHg 99%
    03:00 +21°C° 0,4 mm 0 m/S 716 mmHg 99%
    04:00 +20°C° 0,4 mm 0 m/S 716 mmHg 99%
    05:00 +20°C° 0,4 mm 0 m/S 716 mmHg 99%
    06:00 +21°C° 0,1 mm 0 m/S 716 mmHg 96%
    07:00 +22°C° 0,1 mm 0 m/S 717 mmHg 93%
    08:00 +23°C° 0,1 mm 0 m/S 717 mmHg 90%
    09:00 +25°C° 0 mm 0 m/S 717 mmHg 80%
    10:00 +28°C° 0 mm 0 m/S 717 mmHg 70%
    11:00 +30°C° 0 mm 0 m/S 717 mmHg 59%
    12:00 +31°C° 0,8 mm 1 m/S 716 mmHg 65%
    13:00 +31°C° 0,8 mm 1 m/S 715 mmHg 72%
    14:00 +30°C° 0,8 mm 1 m/S 714 mmHg 78%
    15:00 +29°C° 1,2 mm 1 m/S 714 mmHg 83%
    16:00 +27°C° 1,2 mm 1 m/S 715 mmHg 89%
    17:00 +26°C° 1,2 mm 1 m/S 715 mmHg 94%
    18:00 +23°C° 1 mm 0 m/S 716 mmHg 94%
    19:00 +22°C° 1 mm 0 m/S 716 mmHg 95%
    20:00 +22°C° 1 mm 0 m/S 717 mmHg 96%
    21:00 +21°C° 0,3 mm 0 m/S 717 mmHg 96%
    22:00 +21°C° 0,3 mm 0 m/S 717 mmHg 97%
    23:00 +21°C° 0,3 mm 0 m/S 716 mmHg 98%

    30 September, Samstag

    Zeit Temperatur Niederschläge Wind Luftdruck Luftfeuchtigkeit
    00:00 +21°C° 0,1 mm 0 m/S 716 mmHg 98%
    01:00 +21°C° 0,1 mm 0 m/S 716 mmHg 98%
    02:00 +20°C° 0,1 mm 0 m/S 715 mmHg 98%
    03:00 +20°C° 0,1 mm 0 m/S 715 mmHg 98%
    04:00 +20°C° 0,1 mm 0 m/S 715 mmHg 99%
    05:00 +20°C° 0,1 mm 0 m/S 715 mmHg 99%
    06:00 +21°C° 0 mm 0 m/S 716 mmHg 95%
    07:00 +22°C° 0 mm 0 m/S 716 mmHg 91%
    08:00 +24°C° 0 mm 0 m/S 717 mmHg 88%
    09:00 +28°C° 0,1 mm 1 m/S 716 mmHg 77%
    10:00 +30°C° 0,1 mm 1 m/S 716 mmHg 66%
    11:00 +31°C° 0,1 mm 2 m/S 716 mmHg 55%
    12:00 +31°C° 0,9 mm 2 m/S 715 mmHg 64%
    13:00 +30°C° 0,9 mm 2 m/S 715 mmHg 72%
    14:00 +29°C° 0,9 mm 2 m/S 714 mmHg 81%
    15:00 +27°C° 1,4 mm 2 m/S 714 mmHg 85%
    16:00 +26°C° 1,4 mm 2 m/S 714 mmHg 89%
    17:00 +24°C° 1,4 mm 2 m/S 714 mmHg 93%
    18:00 +24°C° 0,1 mm 1 m/S 715 mmHg 94%
    19:00 +23°C° 0,1 mm 1 m/S 715 mmHg 94%
    20:00 +22°C° 0,1 mm 1 m/S 715 mmHg 95%
    21:00 +22°C° 0 mm 1 m/S 715 mmHg 95%
    22:00 +20°C° 0 mm 0 m/S 715 mmHg 96%
    23:00 +20°C° 0 mm 0 m/S 715 mmHg 96%

    1 Oktober, Sonntag

    Zeit Temperatur Niederschläge Wind Luftdruck Luftfeuchtigkeit
    00:00 +20°C° 0 mm 0 m/S 715 mmHg 96%
    01:00 +20°C° 0 mm 0 m/S 715 mmHg 97%
    02:00 +20°C° 0 mm 0 m/S 714 mmHg 98%
    03:00 +20°C° 0 mm 0 m/S 715 mmHg 97%
    04:00 +20°C° 0 mm 0 m/S 715 mmHg 97%
    05:00 +21°C° 0 mm 0 m/S 715 mmHg 97%
    06:00 +21°C° 0 mm 0 m/S 716 mmHg 94%
    07:00 +22°C° 0 mm 0 m/S 716 mmHg 92%
    08:00 +23°C° 0 mm 0 m/S 716 mmHg 89%
    09:00 +27°C° 0 mm 1 m/S 716 mmHg 80%
    10:00 +29°C° 0 mm 1 m/S 716 mmHg 70%
    11:00 +30°C° 0 mm 1 m/S 716 mmHg 61%
    12:00 +31°C° 0,2 mm 1 m/S 715 mmHg 62%
    13:00 +31°C° 0,2 mm 1 m/S 714 mmHg 63%
    14:00 +31°C° 0,2 mm 1 m/S 714 mmHg 64%
    15:00 +30°C° 0,8 mm 1 m/S 714 mmHg 72%
    16:00 +28°C° 0,8 mm 1 m/S 714 mmHg 80%
    17:00 +27°C° 0,8 mm 1 m/S 714 mmHg 89%
    18:00 +26°C° 0,3 mm 1 m/S 714 mmHg 91%
    19:00 +23°C° 0,3 mm 0 m/S 715 mmHg 94%
    20:00 +21°C° 0,3 mm 0 m/S 715 mmHg 96%
    21:00 +21°C° 0,2 mm 0 m/S 715 mmHg 97%
    22:00 +21°C° 0,2 mm 0 m/S 715 mmHg 98%
    23:00 +21°C° 0,2 mm 0 m/S 715 mmHg 98%
    Mehr zeigen